This is the latest recevied weather packets stored in our database for station/object KI7MOQ. If no packets are shown the sender has not sent any weather packets the latest 10 day(s).
| Time | Temp. | Humidity | Pressure | Rain* | Wind** | Luminosity | Snow |
|---|---|---|---|---|---|---|---|
| 1778290392 | 18.89° C | 53% | 1023.2 hPa | 0 mm | - | 18 W/m² | - |
| 1778290089 | 18.89° C | 53% | 1023.4 hPa | 0 mm | - | 19 W/m² | - |
| 1778289786 | 18.89° C | 54% | 1023.4 hPa | 0 mm | - | 26 W/m² | - |
| 1778289483 | 18.89° C | 52% | 1023.5 hPa | 0 mm | - | 20 W/m² | - |
| 1778289175 | 18.89° C | 53% | 1023.4 hPa | 0 mm | - | 21 W/m² | - |
| 1778288873 | 18.89° C | 53% | 1023.5 hPa | 0 mm | - | 22 W/m² | - |
| 1778288569 | 18.89° C | 51% | 1023.4 hPa | 0 mm | - | 23 W/m² | - |
| 1778288266 | 18.89° C | 52% | 1023.7 hPa | 0 mm | - | 23 W/m² | - |
| 1778287964 | 18.89° C | 51% | 1023.5 hPa | 0 mm | - | 22 W/m² | - |
| 1778287663 | 19.44° C | 52% | 1023.6 hPa | 0 mm | - | 27 W/m² | - |
| 1778287361 | 18.89° C | 52% | 1023.7 hPa | 0 mm | - | 34 W/m² | - |
| 1778287059 | 18.89° C | 51% | 1023.5 hPa | 0 mm | - | 33 W/m² | - |
| 1778286756 | 18.89° C | 51% | 1023.6 hPa | 0 mm | - | 30 W/m² | - |
| 1778286453 | 19.44° C | 51% | 1023.6 hPa | 0 mm | - | 36 W/m² | - |
| 1778286151 | 19.44° C | 50% | 1023.6 hPa | 0 mm | - | 42 W/m² | - |
| 1778285848 | 18.89° C | 50% | 1023.7 hPa | 0 mm | - | 45 W/m² | - |
| 1778285544 | 19.44° C | 50% | 1023.8 hPa | 0 mm | - | 41 W/m² | - |
| 1778285242 | 19.44° C | 49% | 1023.6 hPa | 0 mm | - | 51 W/m² | - |
| 1778284939 | 19.44° C | 49% | 1023.5 hPa | 0 mm | - | 58 W/m² | - |
| 1778284636 | 20° C | 48% | 1023.6 hPa | 0 mm | - | 50 W/m² | - |
| 1778284332 | 20° C | 49% | 1023.8 hPa | 0 mm | - | 92 W/m² | - |
| 1778284025 | 19.44° C | 48% | 1023.8 hPa | 0 mm | - | 47 W/m² | - |
| 1778283720 | 20° C | 46% | 1023.9 hPa | 0 mm | - | 40 W/m² | - |
| 1778283420 | 19.44° C | 47% | 1023.6 hPa | 0 mm | - | 358 W/m² | - |
| 1778283117 | 20° C | 48% | 1023.8 hPa | 0 mm | - | 397 W/m² | - |
* Rain latest hour (hover to see other rain measurements)
** Current wind speed in m/s (hover to see current wind gust speed)